Location: Unnamed
(48.6007°N, 2.4808°E)
Time: 15:49:46
(UTC+01:00)

CAS-4B - Visible Passes

Search period start: 25 March 2023 00:00
Search period end: 04 April 2023 01:00
Orbit: 510 x 527 km, 43.0° (Epoch: 25 March)

Date Brightness Start Highest point End Pass type
(mag) Time Alt. Az. Time Alt. Az. Time Alt. Az.
27 Mar ? 06:58:34 10° SSW 07:01:08 16° SSE 07:03:43 10° ESE visible
28 Mar ? 06:42:05 10° SSW 06:44:51 18° SSE 06:47:37 10° ESE visible
29 Mar ? 06:25:35 10° SSW 06:28:31 20° SSE 06:31:28 10° ESE visible
30 Mar ? 06:09:52 14° SSW 06:12:10 21° SSE 06:15:15 10° ESE visible
31 Mar ? 05:54:15 18° SSW 05:55:46 23° SSE 05:58:59 10° ESE visible
01 Apr ? 05:38:33 23° S 05:39:21 25° SSE 05:42:38 10° ESE visible
02 Apr ? 05:22:48 26° SSE 05:22:54 26° SSE 05:26:16 10° ESE visible
03 Apr ? 05:07:00 27° SSE 05:07:00 27° SSE 05:09:51 10° ESE visible
03 Apr ? 06:41:56 10° WSW 06:45:39 37° S 06:49:22 10° ESE visible
